| time (UTC) | temp F | wind direction | speed knots | gust knots | rain 1hr in | rain 24hr in | rain mn in | humidity % | barometer mb |
| 20260506033614 | 48 | 219 | 1.7 | 2.6 | 0.00 | 0.00 | 0.00 | 88 | 976.4 |
| 20260506033113 | 48 | 202 | 2.6 | 3.5 | 0.00 | 0.00 | 0.00 | 88 | 976.5 |
| 20260506032613 | 48 | 194 | 2.6 | 3.5 | 0.00 | 0.00 | 0.00 | 87 | 976.3 |
| 20260506032113 | 48 | 254 | 2.6 | 3.5 | 0.00 | 0.00 | 0.00 | 87 | 976.5 |
| 20260506031612 | 48 | 221 | 1.7 | 2.6 | 0.00 | 0.00 | 0.00 | 87 | 976.3 |
| 20260506030550 | 48 | 203 | 1.7 | 2.6 | 0.00 | 0.00 | 0.00 | 87 | 976.2 |
| 20260506030050 | 48 | 243 | 2.6 | 4.3 | 0.00 | 0.00 | 0.00 | 87 | 976.2 |
| 20260506025548 | 48 | 199 | 2.6 | 3.5 | 0.00 | 0.00 | 0.00 | 87 | 976.1 |
| 20260506025048 | 48 | 195 | 2.6 | 4.3 | 0.00 | 0.00 | 0.00 | 87 | 976.0 |
| 20260506024027 | 48 | 183 | 4.3 | 6.1 | 0.00 | 0.00 | 0.00 | 86 | 976.0 |
| 20260506023527 | 48 | 184 | 3.5 | 4.3 | 0.00 | 0.00 | 0.00 | 86 | 976.0 |
| 20260506023027 | 48 | 190 | 3.5 | 6.1 | 0.00 | 0.00 | 0.00 | 86 | 976.0 |
| 20260506022526 | 48 | 195 | 1.7 | 2.6 | 0.00 | 0.00 | 0.00 | 86 | 976.0 |
| 20260506022025 | 48 | 201 | 1.7 | 2.6 | 0.00 | 0.00 | 0.00 | 86 | 976.1 |
| 20260506021524 | 49 | 188 | 3.5 | 6.1 | 0.00 | 0.00 | 0.00 | 86 | 976.1 |
| 20260506021023 | 49 | 210 | 1.7 | 2.6 | 0.00 | 0.00 | 0.00 | 86 | 976.1 |
| 20260506020523 | 49 | 195 | 1.7 | 2.6 | 0.00 | 0.00 | 0.00 | 85 | 976.1 |
| 20260506020023 | 49 | 186 | 0.9 | 1.7 | 0.00 | 0.00 | 0.00 | 85 | 976.2 |
| 20260506015522 | 49 | 194 | 2.6 | 5.2 | 0.00 | 0.00 | 0.00 | 84 | 976.2 |
| 20260506015022 | 49 | 197 | 1.7 | 3.5 | 0.00 | 0.00 | 0.00 | 83 | 976.1 |
| 20260506014522 | 49 | 197 | 2.6 | 3.5 | 0.00 | 0.00 | 0.00 | 82 | 976.0 |
| 20260506014022 | 49 | 270 | 1.7 | 4.3 | 0.00 | 0.00 | 0.00 | 82 | 976.0 |
| 20260506013522 | 49 | 219 | 0.9 | 1.7 | 0.00 | 0.00 | 0.00 | 81 | 976.0 |
| 20260506013021 | 49 | 194 | 1.7 | 2.6 | 0.00 | 0.00 | 0.00 | 80 | 976.0 |
| 20260506012521 | 49 | 184 | 3.5 | 4.3 | 0.00 | 0.00 | 0.00 | 79 | 976.0 |
| 20260506012021 | 49 | 0 | 0.0 | 0.0 | 0.00 | 0.00 | 0.00 | 79 | 976.0 |
| 20260506010959 | 49 | 186 | 2.6 | 3.5 | 0.00 | 0.00 | 0.00 | 79 | 975.8 |
| 20260506010458 | 49 | 189 | 1.7 | 2.6 | 0.00 | 0.00 | 0.00 | 79 | 975.7 |
| 20260506005957 | 49 | 174 | 1.7 | 2.6 | 0.00 | 0.00 | 0.00 | 79 | 975.5 |
| 20260506005457 | 49 | 184 | 1.7 | 2.6 | 0.00 | 0.00 | 0.00 | 79 | 975.5 |
| 20260506004957 | 49 | 177 | 1.7 | 2.6 | 0.00 | 0.00 | 0.00 | 78 | 975.6 |
| 20260506003414 | 49 | 168 | 1.7 | 2.6 | 0.00 | 0.00 | 0.00 | 78 | 975.4 |
| 20260506002914 | 49 | 170 | 1.7 | 2.6 | 0.00 | 0.00 | 0.00 | 78 | 975.3 |
| 20260506002414 | 49 | 188 | 2.6 | 2.6 | 0.00 | 0.00 | 0.00 | 78 | 975.3 |
| 20260506001913 | 49 | 183 | 2.6 | 2.6 | 0.00 | 0.00 | 0.00 | 78 | 975.2 |
| 20260506000851 | 49 | 174 | 1.7 | 1.7 | 0.00 | 0.00 | 0.00 | 78 | 975.3 |
| 20260505235309 | 49 | 129 | 1.7 | 2.6 | 0.00 | 0.00 | 0.00 | 77 | 975.1 |
| 20260505234808 | 50 | 104 | 1.7 | 2.6 | 0.00 | 0.00 | 0.00 | 77 | 975.0 |
| 20260505234308 | 50 | 143 | 1.7 | 2.6 | 0.00 | 0.00 | 0.00 | 77 | 975.0 |
| 20260505233807 | 50 | 120 | 0.9 | 1.7 | 0.00 | 0.00 | 0.00 | 77 | 975.1 |
| 20260505232746 | 50 | 130 | 0.9 | 1.7 | 0.00 | 0.00 | 0.00 | 77 | 975.2 |
| 20260505230121 | 50 | 145 | 1.7 | 2.6 | 0.00 | 0.00 | 0.00 | 76 | 975.3 |
| 20260505225621 | 50 | 139 | 1.7 | 2.6 | 0.00 | 0.00 | 0.00 | 76 | 975.3 |
| 20260505225119 | 50 | 0 | 0.0 | 0.0 | 0.00 | 0.00 | 0.00 | 76 | 975.3 |
| 20260505223016 | 49 | 212 | 0.0 | 0.9 | 0.00 | 0.00 | 0.00 | 75 | 975.2 |
| 20260505222515 | 49 | 343 | 1.7 | 2.6 | 0.00 | 0.00 | 0.00 | 76 | 975.2 |
| 20260505221454 | 49 | 14 | 1.7 | 2.6 | 0.00 | 0.00 | 0.00 | 77 | 975.2 |
| 20260505220954 | 49 | 89 | 0.9 | 1.7 | 0.00 | 0.00 | 0.00 | 76 | 975.3 |
| 20260505215932 | 49 | 63 | 0.9 | 2.6 | 0.00 | 0.00 | 0.00 | 76 | 975.4 |
| 20260505215431 | 49 | 62 | 0.9 | 2.6 | 0.00 | 0.00 | 0.00 | 76 | 975.3 |
| 20260505214931 | 49 | 23 | 1.7 | 1.7 | 0.00 | 0.00 | 0.00 | 76 | 975.3 |
| 20260505214430 | 49 | 22 | 0.9 | 1.7 | 0.00 | 0.00 | 0.00 | 76 | 975.3 |
| 20260505213930 | 49 | 244 | 0.9 | 1.7 | 0.00 | 0.00 | 0.00 | 77 | 975.4 |
| 20260505212908 | 49 | 267 | 0.9 | 1.7 | 0.00 | 0.00 | 0.00 | 76 | 975.4 |
| 20260505212407 | 49 | 0 | 0.0 | 0.0 | 0.00 | 0.00 | 0.00 | 76 | 975.4 |
| 20260505211906 | 49 | 313 | 0.9 | 2.6 | 0.00 | 0.00 | 0.00 | 76 | 975.4 |
| 20260505211406 | 49 | 336 | 3.5 | 4.3 | 0.00 | 0.00 | 0.00 | 75 | 975.4 |
| 20260505210906 | 49 | 336 | 2.6 | 3.5 | 0.00 | 0.00 | 0.00 | 75 | 975.3 |
| 20260505210405 | 49 | 324 | 1.7 | 2.6 | 0.00 | 0.00 | 0.00 | 76 | 975.3 |
| 20260505205905 | 49 | 286 | 0.9 | 1.7 | 0.00 | 0.00 | 0.00 | 76 | 975.3 |
| 20260505205404 | 49 | 337 | 3.5 | 3.5 | 0.00 | 0.00 | 0.00 | 76 | 975.4 |
| 20260505204904 | 49 | 279 | 2.6 | 3.5 | 0.00 | 0.00 | 0.00 | 75 | 975.4 |
| 20260505204403 | 49 | 328 | 2.6 | 4.3 | 0.00 | 0.00 | 0.00 | 76 | 975.4 |
| 20260505203341 | 49 | 341 | 2.6 | 4.3 | 0.00 | 0.00 | 0.00 | 76 | 975.5 |
| 20260505202841 | 49 | 313 | 4.3 | 5.2 | 0.00 | 0.00 | 0.00 | 76 | 975.5 |
| 20260505202341 | 49 | 353 | 0.9 | 1.7 | 0.00 | 0.00 | 0.00 | 77 | 975.6 |
| 20260505201840 | 49 | 330 | 2.6 | 3.5 | 0.00 | 0.00 | 0.00 | 77 | 975.6 |
| 20260505201341 | 49 | 286 | 1.7 | 2.6 | 0.00 | 0.00 | 0.00 | 77 | 975.5 |
| 20260505200840 | 49 | 306 | 2.6 | 3.5 | 0.00 | 0.00 | 0.00 | 77 | 975.4 |
| 20260505200340 | 49 | 285 | 2.6 | 4.3 | 0.00 | 0.00 | 0.00 | 76 | 975.5 |
| 20260505195318 | 49 | 285 | 2.6 | 3.5 | 0.00 | 0.00 | 0.00 | 76 | 975.4 |
| 20260505194818 | 49 | 334 | 3.5 | 4.3 | 0.00 | 0.00 | 0.00 | 77 | 975.3 |
| 20260505194318 | 49 | 285 | 2.6 | 4.3 | 0.00 | 0.00 | 0.00 | 77 | 975.2 |
| 20260505193817 | 49 | 282 | 3.5 | 5.2 | 0.00 | 0.00 | 0.00 | 76 | 975.2 |
| 20260505193316 | 49 | 301 | 2.6 | 5.2 | 0.00 | 0.00 | 0.00 | 77 | 975.1 |
| 20260505192816 | 49 | 283 | 3.5 | 4.3 | 0.00 | 0.00 | 0.00 | 77 | 975.2 |
| 20260505192315 | 48 | 291 | 3.5 | 7.0 | 0.00 | 0.00 | 0.00 | 76 | 975.1 |
| 20260505191814 | 48 | 292 | 1.7 | 3.5 | 0.00 | 0.00 | 0.00 | 78 | 975.1 |
| 20260505191313 | 48 | 299 | 2.6 | 4.3 | 0.00 | 0.00 | 0.00 | 76 | 974.9 |
| 20260505190252 | 49 | 311 | 2.6 | 4.3 | 0.00 | 0.00 | 0.00 | 77 | 974.9 |
| 20260505185752 | 49 | 280 | 3.5 | 5.2 | 0.00 | 0.00 | 0.00 | 73 | 975.0 |
| 20260505184729 | 50 | 325 | 3.5 | 6.1 | 0.00 | 0.00 | 0.00 | 72 | 974.9 |
| 20260505184229 | 50 | 292 | 1.7 | 2.6 | 0.00 | 0.00 | 0.00 | 73 | 974.8 |
| 20260505183729 | 51 | 333 | 2.6 | 4.3 | 0.00 | 0.00 | 0.00 | 70 | 974.8 |
| 20260505183228 | 51 | 288 | 3.5 | 6.1 | 0.00 | 0.00 | 0.00 | 69 | 974.9 |
| 20260505182728 | 52 | 280 | 2.6 | 4.3 | 0.00 | 0.00 | 0.00 | 67 | 974.9 |
| 20260505182227 | 52 | 322 | 4.3 | 7.8 | 0.00 | 0.00 | 0.00 | 63 | 974.6 |
| 20260505181727 | 52 | 327 | 4.3 | 7.0 | 0.00 | 0.00 | 0.00 | 59 | 974.6 |
| 20260505180705 | 53 | 296 | 5.2 | 8.7 | 0.00 | 0.00 | 0.00 | 58 | 974.5 |
| 20260505180204 | 53 | 267 | 2.6 | 4.3 | 0.00 | 0.00 | 0.00 | 61 | 974.4 |
| 20260505175704 | 53 | 304 | 3.5 | 7.8 | 0.00 | 0.00 | 0.00 | 58 | 974.1 |
| 20260505175204 | 54 | 345 | 3.5 | 6.1 | 0.00 | 0.00 | 0.00 | 60 | 974.3 |
| 20260505174704 | 54 | 319 | 4.3 | 7.0 | 0.00 | 0.00 | 0.00 | 58 | 974.4 |
| 20260505173642 | 54 | 322 | 5.2 | 7.0 | 0.00 | 0.00 | 0.00 | 55 | 974.2 |
| 20260505173141 | 54 | 277 | 3.5 | 5.2 | 0.00 | 0.00 | 0.00 | 55 | 974.2 |
| 20260505171558 | 55 | 349 | 4.3 | 6.1 | 0.00 | 0.00 | 0.00 | 56 | 973.7 |
| 20260505170537 | 55 | 358 | 5.2 | 7.8 | 0.00 | 0.00 | 0.00 | 56 | 973.5 |
| 20260505170036 | 55 | 336 | 5.2 | 7.8 | 0.00 | 0.00 | 0.00 | 58 | 973.5 |
| 20260505165535 | 55 | 283 | 1.7 | 6.1 | 0.00 | 0.00 | 0.00 | 57 | 973.5 |
| 20260505165034 | 56 | 343 | 2.6 | 4.3 | 0.00 | 0.00 | 0.00 | 57 | 973.4 |
| 20260505164533 | 56 | 33 | 3.5 | 4.3 | 0.00 | 0.00 | 0.00 | 55 | 973.5 |
| 20260505164033 | 56 | 2 | 4.3 | 7.0 | 0.00 | 0.00 | 0.00 | 55 | 973.4 |
| 20260505163012 | 55 | 334 | 1.7 | 2.6 | 0.00 | 0.00 | 0.00 | 55 | 973.3 |
| 20260505162511 | 54 | 298 | 0.9 | 2.6 | 0.00 | 0.00 | 0.00 | 56 | 973.3 |
| 20260505162011 | 55 | 341 | 2.6 | 5.2 | 0.00 | 0.00 | 0.00 | 56 | 973.5 |
| 20260505160949 | 54 | 315 | 4.3 | 7.0 | 0.00 | 0.00 | 0.00 | 57 | 973.5 |
| 20260505160449 | 54 | 334 | 4.3 | 7.0 | 0.00 | 0.00 | 0.00 | 57 | 973.4 |
| 20260505152903 | 54 | 317 | 6.1 | 10.4 | 0.00 | 0.00 | 0.00 | 61 | 973.7 |
| 20260505152403 | 55 | 353 | 6.1 | 7.8 | 0.00 | 0.00 | 0.00 | 61 | 973.5 |
| 20260505151341 | 55 | 341 | 5.2 | 8.7 | 0.00 | 0.00 | 0.00 | 61 | 973.2 |
| 20260505150841 | 55 | 335 | 7.0 | 7.8 | 0.00 | 0.00 | 0.00 | 60 | 972.8 |
| 20260505150341 | 55 | 335 | 4.3 | 7.8 | 0.00 | 0.00 | 0.00 | 63 | 972.5 |
| 20260505124646 | 50 | 334 | 3.5 | 6.1 | 0.00 | 0.00 | 0.00 | 78 | 971.4 |
| 20260505124145 | 50 | 274 | 1.7 | 3.5 | 0.00 | 0.00 | 0.00 | 78 | 971.3 |
| 20260505123645 | 50 | 292 | 1.7 | 2.6 | 0.00 | 0.00 | 0.00 | 78 | 971.1 |
| 20260505122624 | 51 | 343 | 7.0 | 9.6 | 0.00 | 0.00 | 0.00 | 78 | 970.8 |
| 20260505122123 | 53 | 342 | 6.1 | 8.7 | 0.00 | 0.00 | 0.00 | 77 | 970.6 |
| 20260505121622 | 54 | 347 | 5.2 | 7.8 | 0.00 | 0.00 | 0.00 | 76 | 970.4 |
| 20260505121122 | 55 | 315 | 4.3 | 6.1 | 0.00 | 0.00 | 0.00 | 77 | 970.4 |
| 20260505120622 | 57 | 353 | 7.0 | 10.4 | 0.00 | 0.00 | 0.00 | 75 | 970.3 |
| 20260505120122 | 58 | 293 | 5.2 | 7.0 | 0.00 | 0.00 | 0.00 | 76 | 970.1 |
| 20260505115100 | 58 | 274 | 4.3 | 7.8 | 0.00 | 0.00 | 0.00 | 76 | 969.5 |
| 20260505114559 | 58 | 266 | 6.1 | 9.6 | 0.00 | 0.00 | 0.00 | 76 | 969.4 |
| 20260505114059 | 58 | 270 | 5.2 | 7.0 | 0.00 | 0.00 | 0.00 | 75 | 969.4 |
| 20260505113038 | 58 | 271 | 6.1 | 10.4 | 0.00 | 0.00 | 0.00 | 75 | 969.2 |
| 20260505112537 | 59 | 253 | 7.8 | 13.0 | 0.00 | 0.00 | 0.00 | 75 | 969.2 |
| 20260505111514 | 59 | 275 | 6.1 | 7.8 | 0.00 | 0.00 | 0.00 | 74 | 969.1 |
| 20260505101930 | 59 | 271 | 8.7 | 13.9 | 0.00 | 0.00 | 0.00 | 72 | 968.6 |
| 20260505101430 | 59 | 263 | 6.1 | 10.4 | 0.00 | 0.00 | 0.00 | 73 | 968.5 |
| 20260505100929 | 59 | 278 | 6.1 | 9.6 | 0.00 | 0.00 | 0.00 | 73 | 968.5 |
| 20260505095346 | 59 | 266 | 4.3 | 7.8 | 0.00 | 0.00 | 0.00 | 73 | 968.5 |
| 20260505094846 | 59 | 264 | 7.0 | 10.4 | 0.00 | 0.00 | 0.00 | 73 | 968.5 |
| 20260505094346 | 59 | 249 | 6.1 | 7.8 | 0.00 | 0.00 | 0.00 | 73 | 968.4 |
| 20260505093846 | 59 | 275 | 5.2 | 9.6 | 0.00 | 0.00 | 0.00 | 73 | 968.4 |
| 20260505093345 | 59 | 255 | 6.1 | 8.7 | 0.00 | 0.00 | 0.00 | 73 | 968.2 |
| 20260505092845 | 60 | 264 | 7.0 | 10.4 | 0.00 | 0.00 | 0.00 | 73 | 968.2 |
| 20260505092344 | 60 | 274 | 7.0 | 8.7 | 0.00 | 0.00 | 0.00 | 73 | 968.0 |
| 20260505091843 | 60 | 260 | 9.6 | 14.8 | 0.00 | 0.00 | 0.00 | 72 | 968.0 |
| 20260505091343 | 60 | 274 | 7.0 | 12.2 | 0.00 | 0.00 | 0.00 | 72 | 968.0 |
| 20260505090843 | 60 | 271 | 5.2 | 7.8 | 0.00 | 0.00 | 0.00 | 72 | 967.9 |
| 20260505090342 | 60 | 266 | 7.8 | 11.3 | 0.00 | 0.00 | 0.00 | 72 | 967.9 |
| 20260505085842 | 60 | 276 | 5.2 | 6.1 | 0.00 | 0.00 | 0.00 | 72 | 967.8 |
| 20260505085341 | 60 | 265 | 5.2 | 7.0 | 0.00 | 0.00 | 0.00 | 72 | 967.8 |
| 20260505084320 | 60 | 258 | 6.1 | 10.4 | 0.00 | 0.00 | 0.00 | 72 | 967.6 |
| 20260505083820 | 60 | 237 | 2.6 | 5.2 | 0.00 | 0.00 | 0.00 | 72 | 967.6 |
| 20260505083320 | 60 | 264 | 3.5 | 5.2 | 0.00 | 0.00 | 0.00 | 72 | 967.5 |
| 20260505082819 | 60 | 246 | 4.3 | 6.1 | 0.00 | 0.00 | 0.00 | 72 | 967.5 |
| 20260505082318 | 61 | 259 | 4.3 | 6.1 | 0.00 | 0.00 | 0.00 | 71 | 967.6 |
| 20260505081257 | 61 | 267 | 2.6 | 5.2 | 0.00 | 0.00 | 0.00 | 70 | 967.4 |
| 20260505080757 | 61 | 276 | 7.0 | 11.3 | 0.00 | 0.00 | 0.00 | 70 | 967.4 |
| 20260505080256 | 61 | 266 | 5.2 | 7.0 | 0.00 | 0.00 | 0.00 | 70 | 967.4 |
| 20260505075756 | 61 | 265 | 4.3 | 7.0 | 0.00 | 0.00 | 0.00 | 71 | 967.3 |
| 20260505074735 | 61 | 258 | 4.3 | 9.6 | 0.00 | 0.00 | 0.00 | 71 | 967.3 |
| 20260505072109 | 62 | 260 | 5.2 | 7.8 | 0.00 | 0.00 | 0.00 | 69 | 967.4 |
| 20260505071609 | 62 | 271 | 6.1 | 9.6 | 0.00 | 0.00 | 0.00 | 68 | 967.4 |
| 20260505071108 | 62 | 263 | 3.5 | 6.1 | 0.00 | 0.00 | 0.00 | 68 | 967.5 |
| 20260505070608 | 62 | 273 | 6.1 | 11.3 | 0.00 | 0.00 | 0.00 | 68 | 967.5 |
| 20260505070108 | 61 | 261 | 5.2 | 7.8 | 0.00 | 0.00 | 0.00 | 69 | 967.4 |
| 20260505065047 | 60 | 252 | 3.5 | 7.0 | 0.00 | 0.00 | 0.00 | 71 | 967.6 |
| 20260505064546 | 60 | 255 | 3.5 | 6.1 | 0.00 | 0.00 | 0.00 | 71 | 967.7 |
| 20260505064046 | 59 | 267 | 1.7 | 3.5 | 0.00 | 0.00 | 0.00 | 72 | 967.8 |
| 20260505063025 | 59 | 245 | 4.3 | 7.8 | 0.00 | 0.00 | 0.00 | 72 | 968.0 |
| 20260505062524 | 59 | 242 | 4.3 | 7.8 | 0.00 | 0.00 | 0.00 | 71 | 968.1 |
| 20260505062023 | 59 | 238 | 3.5 | 7.0 | 0.00 | 0.00 | 0.00 | 72 | 968.1 |
| 20260505061002 | 59 | 242 | 4.3 | 7.0 | 0.00 | 0.00 | 0.00 | 72 | 968.2 |
| 20260505055419 | 59 | 261 | 4.3 | 6.1 | 0.00 | 0.00 | 0.00 | 71 | 968.4 |
| 20260505054918 | 59 | 259 | 1.7 | 5.2 | 0.00 | 0.00 | 0.00 | 71 | 968.4 |
| 20260505054418 | 59 | 256 | 6.1 | 10.4 | 0.00 | 0.00 | 0.00 | 71 | 968.5 |
| 20260505053918 | 60 | 257 | 4.3 | 9.6 | 0.00 | 0.00 | 0.00 | 71 | 968.5 |
| 20260505053418 | 60 | 254 | 6.1 | 9.6 | 0.00 | 0.00 | 0.00 | 71 | 968.6 |
| 20260505052917 | 60 | 268 | 5.2 | 11.3 | 0.00 | 0.00 | 0.00 | 71 | 968.6 |
| 20260505052417 | 60 | 220 | 2.6 | 3.5 | 0.00 | 0.00 | 0.00 | 71 | 968.5 |
| 20260505051917 | 60 | 248 | 7.0 | 11.3 | 0.00 | 0.00 | 0.00 | 70 | 968.5 |
| 20260505051416 | 60 | 242 | 4.3 | 6.1 | 0.00 | 0.00 | 0.00 | 70 | 968.6 |
| 20260505050354 | 60 | 224 | 3.5 | 6.1 | 0.00 | 0.00 | 0.00 | 71 | 968.6 |
| 20260505040749 | 62 | 264 | 7.0 | 12.2 | 0.00 | 0.00 | 0.00 | 68 | 968.5 |
| 20260505040246 | 62 | 251 | 6.1 | 9.6 | 0.00 | 0.00 | 0.00 | 68 | 968.5 |
| 20260505035746 | 61 | 267 | 5.2 | 7.0 | 0.00 | 0.00 | 0.00 | 69 | 968.5 |
| 20260505035246 | 61 | 256 | 4.3 | 7.0 | 0.00 | 0.00 | 0.00 | 70 | 968.6 |
| 20260505034746 | 61 | 250 | 3.5 | 5.2 | 0.00 | 0.00 | 0.00 | 70 | 968.6 |
| 20260505034246 | 61 | 241 | 3.5 | 6.1 | 0.00 | 0.00 | 0.00 | 70 | 968.6 |